Flag for Germany Weather past 2 weeks in Friesoythe, Lower Saxony, Germany

Now
39 °F

Chilly.


Feels Like: 39 °F
Forecast: 35 / 55 °F
Wind: 1 mph from Southwest

Location: Meppen-Mil

Current Time: Apr 28, 2015 at 10:29:45 PM

Latest Report: Apr 28, 2015 at 9:20 PM


Visibility: N/A

Pressure: 30.09 "Hg

Humidity: 75%

Dew point: 32 °F

Location of FriesoytheLocation

Historic Weather in Friesoythe — Graph

°F

Friesoythe temperature yesterday

Maximum temperature yesterday: 54 °F (at 2:20 PM)
Minimum temperature yesterday: 37 °F (at 11:20 PM)
Average temperature yesterday: 49 °F

Past Weeks' High & Low Weather Summary

 TemperatureHumidityPressure
High72 °F (Apr 15, 2:20 PM)100% (Apr 24, 5:20 AM)30.48 "Hg (Apr 24, 5:20 AM)
Low27 °F (Apr 28, 5:20 AM)30% (Apr 20, 5:20 PM)29.68 "Hg (Apr 25, 5:20 PM)
Average49 °F70%30.08 "Hg
* Reported Apr 13 8:20 PM — Apr 28 8:20 PM, Friesoythe, Weather by CustomWeather, © 2015

Note: Actual official high and low records may vary slightly from our data, if they occured in-between our weather recording intervals... More about our weather records

Advertising

Friesoythe weather history for previous 24 hours

 ConditionsComfort  
Time TempWeatherWind HumidityBarometerVisibility
8:20 PM
Tue, Apr 28
46 °FCool.7 mph53%30.07 "HgN/A
7:20 PM45 °FQuite cool.13 mph57%30.04 "HgN/A
6:20 PM48 °FCool.6 mph54%30.04 "HgN/A
5:20 PM50 °FCool.6 mph67%30.01 "HgN/A
4:20 PM46 °FScattered showers. Scattered clouds.3 mph76%29.98 "HgN/A
3:20 PM46 °FSprinkles. Broken clouds.5 mph76%30.01 "HgN/A
2:20 PM41 °FRain showers. Partly sunny.14 mph87%29.98 "Hg5 mi
1:20 PM48 °FPassing clouds.8 mph58%29.95 "HgN/A
12:20 PM50 °FScattered clouds.8 mph43%29.92 "HgN/A
11:20 AM48 °FBroken clouds.9 mph43%29.95 "HgN/A
10:20 AM46 °FPassing clouds.9 mph50%29.92 "HgN/A
9:20 AM45 °FPassing clouds.7 mph57%29.92 "HgN/A
8:20 AM39 °FPassing clouds.3 mph75%29.92 "HgN/A
7:20 AM28 °FPassing clouds.1 mph93%29.92 "HgN/A
6:20 AM27 °FLight fog.1 mph93%29.89 "HgN/A
5:20 AM27 °FChilly.1 mph93%29.89 "HgN/A
4:20 AM28 °FChilly.2 mph93%29.86 "HgN/A
3:20 AM28 °FChilly.2 mph93%29.86 "HgN/A
2:20 AM30 °FChilly.1 mph86%29.86 "HgN/A
1:20 AM32 °FChilly.2 mph87%29.86 "HgN/A
12:20 AM36 °FChilly.3 mph75%29.86 "HgN/A
11:20 PM
Mon, Apr 27
37 °FChilly.3 mph70%29.86 "HgN/A
10:20 PM41 °FQuite cool.5 mph66%29.86 "HgN/A
Weather by CustomWeather, © 2015

See weather overviewHow to use our weather pages